Theta_e
359 359 361 358 359 360 355 347 337 329 328 326 331 333 336 334 333 329 329 330 329 326 324 319 319 320 321 321 320 320 320 321 322 323 324 324 325 326 327 331 333 333 335
360 361 361 357 355 352 344 339 331 327 326 332 334 335 335 332 330 329 327 328 324 320 319 319 321 322 321 320 320 320 320 320 321 322 322 323 324 325 327 328 329 332 334
361 360 361 355 348 342 340 336 330 328 330 334 336 336 332 328 327 327 328 324 320 318 318 321 322 321 320 320 321 322 322 322 322 322 323 323 324 324 325 325 325 327 331
359 360 358 350 343 343 338 332 330 328 331 335 335 333 327 326 327 328 326 321 317 317 317 320 321 321 321 322 324 324 324 324 323 323 324 324 324 324 324 324 324 328 333
358 356 353 346 344 339 334 330 329 329 331 333 335 330 326 327 326 327 322 317 316 316 322 322 322 322 324 324 325 324 323 325 325 325 324 324 323 324 324 324 327 329 335
357 350 346 342 340 338 334 332 330 329 332 335 334 328 326 328 327 326 318 315 315 318 322 321 321 323 323 322 320 319 320 323 324 325 324 324 324 324 324 326 328 333 333
352 347 342 341 339 337 334 332 330 330 334 336 334 329 327 329 328 321 317 317 314 320 323 321 322 323 323 321 319 318 323 320 321 325 325 324 324 324 326 329 330 334 335
345 343 340 339 338 335 334 331 330 333 335 334 332 329 328 330 327 319 319 318 315 319 323 322 323 323 323 320 319 318 324 325 324 324 324 324 324 324 325 326 333 334 336
340 342 340 339 336 335 332 330 331 334 333 330 328 328 329 328 324 319 320 316 315 320 323 322 322 322 321 319 319 318 321 325 328 328 327 325 324 324 325 325 329 334 334
341 342 340 338 336 334 332 330 333 333 332 329 330 331 330 328 321 320 316 314 315 320 322 321 321 319 320 319 318 317 319 322 329 332 329 325 325 325 325 325 327 335 334
339 339 338 336 334 333 330 330 333 333 332 331 331 330 329 324 322 317 312 313 316 320 320 319 318 317 318 321 319 316 318 321 324 324 332 331 328 326 327 328 328 331 334
338 337 336 335 334 332 330 330 333 333 332 332 331 328 326 324 317 312 311 312 315 318 318 317 316 316 316 321 320 320 318 320 318 319 321 324 330 332 331 332 333 332 333
337 336 335 335 334 333 330 330 333 332 332 331 330 327 323 316 311 310 311 311 311 317 316 316 316 315 313 316 317 319 316 317 321 318 318 318 320 322 326 327 327 327 327
337 336 335 335 334 331 331 331 331 327 326 328 328 324 316 311 310 309 310 310 309 315 314 313 314 311 311 312 312 311 310 310 314 316 322 319 317 317 317 319 321 322 322
337 336 335 334 332 331 327 325 325 325 325 326 326 322 312 310 309 310 311 309 309 310 311 310 310 308 307 308 308 307 307 307 307 310 313 316 319 322 321 319 318 318 317
335 334 333 331 329 325 324 324 323 324 326 326 323 315 311 310 309 310 310 310 310 309 307 305 304 303 303 303 303 304 304 304 305 306 307 309 312 313 316 318 319 319 320
334 332 330 328 327 324 323 323 321 321 323 321 315 312 311 310 309 310 311 310 310 309 307 304 302 300 299 299 299 300 300 302 303 304 305 306 307 308 308 309 309 309 308
332 329 330 329 326 324 324 324 325 321 320 313 312 311 310 310 309 309 310 310 309 308 305 300 297 296 296 296 296 297 298 301 302 302 303 304 305 305 305 304 304 305 305
332 331 329 327 326 325 325 325 326 320 319 315 313 311 310 310 310 309 310 309 308 306 303 298 295 294 294 294 295 295 296 298 300 301 302 302 302 302 302 302 302 302 302
331 330 328 328 327 325 326 325 321 318 316 315 314 314 312 310 310 308 308 309 307 305 302 299 296 295 295 295 294 294 295 298 299 300 301 301 301 301 301 301 301 301 301
330 329 329 326 326 325 325 322 320 318 315 315 317 320 317 315 312 309 308 308 306 304 301 299 297 295 294 296 295 294 294 296 297 299 299 299 299 299 299 299 299 299 299
324 325 325 325 324 324 324 323 320 319 319 320 320 315 315 314 309 308 307 307 306 303 301 299 298 295 291 291 295 296 294 295 297 298 298 298 297 297 297 297 296 296 296
323 325 325 324 323 324 323 323 323 321 320 314 311 311 309 307 307 306 307 306 304 302 300 299 297 295 292 290 291 293 295 295 296 297 298 297 297 296 296 295 295 294 294
323 323 324 323 322 322 322 321 322 320 316 309 309 308 306 306 305 306 306 305 302 301 300 298 296 294 292 290 290 292 294 295 296 297 297 298 297 296 296 296 295 294 294
324 323 321 321 321 320 322 320 321 321 318 308 307 305 305 304 304 304 304 302 301 300 298 296 295 293 292 289 290 291 293 294 295 296 296 296 296 295 295 295 294 294 293
323 322 320 320 320 321 317 311 310 312 312 307 305 304 303 303 302 303 302 301 300 298 297 296 294 293 290 289 290 291 292 293 294 295 295 295 294 294 294 294 294 293 293
Wind_Speed
36 41 31 31 31 28 26 21 17 13 9 7 5 5 6 7 9 9 12 14 16 20 27 32 36 38 36 34 32 30 31 30 21 33 39 34 35 38 36 32 31 35 36
38 35 35 28 36 29 21 14 12 11 8 6 6 7 5 6 8 8 11 12 20 28 32 34 38 37 36 35 32 32 32 32 32 24 35 34 32 32 35 30 29 33 37
34 33 32 29 29 20 16 12 13 10 8 7 7 5 6 5 6 8 10 17 23 28 33 33 35 37 36 35 36 35 36 34 33 32 31 37 33 29 28 33 30 35 38
31 30 31 26 21 16 13 14 13 10 9 8 7 6 4 5 7 8 14 20 26 32 35 33 33 34 38 39 40 40 39 34 32 31 31 33 28 24 27 26 26 29 33
29 31 31 28 21 18 19 17 12 10 9 8 8 8 5 5 8 10 15 22 28 32 34 31 33 34 40 45 43 40 37 32 28 26 24 25 23 19 20 26 28 28 27
29 31 31 25 20 19 19 15 12 10 10 10 9 8 7 7 9 11 15 21 27 31 31 30 30 32 39 41 42 43 39 33 29 25 23 20 22 21 24 24 23 18 6
30 31 31 27 25 20 15 14 12 10 10 11 11 11 10 9 10 11 14 22 27 29 28 25 29 36 38 42 47 39 34 28 34 31 26 27 23 25 24 22 23 19 17
30 33 30 24 20 17 15 15 14 13 11 11 11 11 11 11 11 11 16 23 26 30 31 26 32 40 40 48 49 41 34 25 22 25 32 33 31 30 29 24 18 23 22
29 33 29 25 20 17 18 17 15 13 11 10 9 10 10 12 10 12 19 23 25 30 31 26 28 33 42 47 46 41 35 30 31 29 32 34 36 33 27 19 18 9 5
33 33 29 24 20 21 20 18 16 15 12 11 10 10 11 11 7 13 18 21 24 27 28 27 29 35 39 48 49 36 31 31 27 17 21 31 33 30 27 26 20 10 4
28 30 24 21 21 22 21 20 18 17 15 13 10 9 10 6 7 14 15 17 19 22 24 27 30 32 35 40 46 44 37 33 32 41 3 2 5 18 17 17 21 18 9
26 24 21 22 23 23 23 20 18 16 13 13 12 8 8 3 6 11 14 15 17 18 21 23 24 29 33 35 41 45 44 39 37 35 31 26 17 7 5 5 6 7 5
25 26 25 24 25 26 26 18 17 10 10 11 11 8 7 2 5 10 12 15 16 17 17 17 20 26 33 38 38 40 41 39 31 35 31 30 29 27 24 25 26 26 27
29 29 26 27 26 22 16 12 10 9 8 11 12 10 7 5 7 10 12 15 15 16 16 18 21 25 27 33 38 40 41 36 32 30 27 33 36 39 37 30 27 19 23
31 30 28 27 24 17 9 6 5 9 13 15 11 12 12 8 8 10 10 14 14 15 14 20 27 29 28 33 34 34 36 35 32 32 31 29 28 28 31 29 24 30 28
27 27 24 23 20 13 9 5 6 6 8 8 13 16 13 10 10 7 6 9 13 14 19 21 21 21 22 25 27 29 33 34 33 30 29 30 28 27 21 24 25 24 21
22 21 20 18 14 11 11 8 9 3 7 13 17 15 12 13 11 8 9 10 12 16 22 19 18 19 23 24 24 24 25 27 28 31 30 29 28 29 29 28 27 27 26
18 13 16 16 16 13 14 13 10 12 18 19 17 15 13 11 9 8 8 7 12 16 19 19 20 21 22 23 23 24 23 25 27 28 29 29 29 26 25 24 27 24 23
15 15 14 12 15 16 16 14 13 17 21 22 19 16 12 11 7 6 5 7 11 13 16 18 19 21 22 22 22 21 22 22 24 25 25 26 26 25 24 24 23 27 26
12 12 11 16 17 17 18 14 14 20 22 22 18 15 14 12 7 7 5 7 10 12 14 16 18 20 22 22 20 19 20 21 23 24 24 24 24 24 23 23 24 23 23
14 14 12 11 10 11 13 16 19 23 21 19 15 10 7 17 11 7 5 8 9 11 13 14 17 19 21 21 20 18 18 18 19 21 21 21 21 22 21 21 21 22 22
9 8 7 9 8 7 7 10 13 16 15 14 12 14 14 16 13 11 9 11 9 10 11 13 16 18 20 20 19 19 17 16 17 18 17 19 20 20 19 19 20 20 21
7 7 5 4 4 6 5 6 11 15 15 16 19 22 20 17 14 12 13 13 10 10 9 11 14 16 18 18 17 16 17 15 14 14 15 16 18 18 17 18 20 22 21
7 6 8 7 4 5 8 10 12 15 15 19 22 23 20 16 15 15 15 13 11 9 8 9 12 14 16 16 16 14 13 12 11 11 12 11 14 14 13 13 15 17 16
8 7 10 9 8 8 9 12 12 15 16 22 25 22 19 16 14 14 14 12 10 7 6 8 11 13 15 15 16 15 12 10 10 9 9 9 11 11 11 10 10 12 13
8 7 8 9 10 12 6 11 14 18 20 26 26 23 19 14 13 14 13 11 8 6 5 6 9 11 13 14 15 17 15 9 8 9 8 9 10 10 10 10 10 10 11
Wind_Direction
216 217 213 220 225 213 210 209 215 228 241 259 261 266 296 314 324 322 328 319 320 321 318 315 312 313 304 293 284 277 271 265 266 270 273 274 271 270 268 263 263 265 265
219 212 211 208 221 201 195 196 217 236 240 238 258 275 288 308 319 322 324 327 326 323 320 315 312 311 300 292 285 278 273 267 265 273 272 274 270 264 262 266 263 266 265
211 210 210 209 196 187 183 209 224 225 230 246 267 256 286 302 295 328 319 324 324 323 322 320 316 308 297 294 287 279 276 272 264 262 264 268 269 258 258 260 264 270 261
204 204 211 190 184 192 197 207 219 221 232 240 240 252 261 280 309 316 317 321 322 322 323 319 322 311 302 298 297 291 279 271 264 257 256 261 260 257 253 258 268 262 250
197 200 200 184 187 190 202 212 220 219 226 239 234 260 271 288 312 311 316 321 325 327 330 329 326 315 307 304 295 297 289 274 263 254 250 251 249 244 241 255 252 252 249
199 198 186 178 185 203 213 214 213 218 224 237 240 263 265 291 298 299 315 327 330 336 338 338 327 318 319 318 309 298 283 268 260 246 245 241 243 235 244 242 249 236 244
196 191 184 183 192 208 212 207 211 216 230 227 241 253 266 278 285 294 316 331 332 335 336 336 329 329 323 326 332 325 315 283 256 245 240 238 236 231 241 239 233 236 233
190 189 185 188 199 205 206 205 208 214 221 232 253 260 281 297 276 299 323 332 333 337 341 332 330 329 331 337 346 339 329 312 280 251 242 243 237 235 239 248 238 238 241
184 189 188 197 198 205 203 209 211 213 222 237 256 266 283 293 273 311 330 332 336 338 343 344 348 337 349 356 354 342 337 329 308 284 256 245 239 238 236 249 263 250 250
193 193 196 196 202 202 209 206 212 218 225 236 243 265 277 282 276 317 331 331 333 339 351 359 360 351 9 15 5 349 349 339 6 345 260 248 237 242 239 233 245 219 217
193 193 190 194 202 208 208 210 215 221 226 236 251 266 289 238 317 330 332 334 337 341 354 357 2 1 10 22 20 359 4 12 12 13 48 325 218 225 239 236 237 257 276
193 184 189 200 212 209 210 213 219 232 235 246 257 273 219 243 328 341 345 343 345 345 351 354 360 11 18 28 25 22 13 24 23 24 30 29 49 117 180 207 201 174 174
184 184 192 209 211 214 215 210 218 223 235 252 260 250 192 149 14 359 353 350 352 354 2 359 13 25 30 33 31 34 24 19 24 34 31 32 36 52 71 85 89 88 81
186 193 204 209 210 219 217 228 227 238 249 262 240 183 162 97 37 17 7 3 0 6 10 18 29 27 29 36 33 31 31 23 17 22 34 43 46 48 48 49 60 61 61
198 202 207 209 213 206 213 223 258 276 269 270 237 172 145 97 56 35 20 23 17 23 25 29 31 22 20 25 24 24 24 25 17 21 31 33 38 47 52 49 51 60 55
204 210 213 213 207 206 215 270 302 296 270 227 167 159 128 108 80 63 59 38 36 38 42 32 28 15 15 18 15 14 25 24 24 22 29 35 37 37 41 46 51 53 53
223 218 217 210 216 230 234 275 260 260 156 159 158 148 131 114 86 82 74 62 50 47 52 36 30 26 25 28 28 25 17 29 37 36 37 34 39 41 42 44 46 49 43
227 230 226 233 253 238 255 268 256 206 172 161 156 150 138 121 100 88 80 75 59 55 56 48 41 38 35 35 33 30 29 36 41 44 44 45 45 44 42 39 44 46 44
235 244 249 247 241 247 266 262 251 209 189 170 166 163 160 141 115 100 85 87 88 69 61 52 46 43 38 37 36 36 37 38 42 44 47 50 50 46 46 47 46 48 47
240 243 245 262 262 256 253 242 215 199 188 179 181 180 185 183 151 124 98 122 104 84 68 59 50 41 35 33 33 36 39 42 43 41 44 47 49 49 46 46 47 43 45
255 256 257 259 249 233 223 211 204 194 189 188 188 184 173 207 187 151 137 144 120 93 76 67 57 45 38 35 32 34 40 44 44 42 43 44 42 44 46 49 49 48 45
241 228 227 235 236 233 227 214 201 191 191 187 183 171 170 165 158 152 143 144 126 98 78 66 55 43 38 33 29 29 31 34 38 39 40 41 39 39 43 46 46 43 39
182 193 196 203 210 235 241 208 199 183 171 164 156 150 154 147 146 149 151 149 135 111 88 59 48 43 36 31 26 24 24 26 27 30 33 35 34 36 41 45 42 39 40
182 182 184 191 184 184 195 192 181 163 152 154 155 153 149 145 143 147 151 149 137 117 94 61 49 40 32 27 24 21 20 24 24 26 29 29 24 26 32 40 41 38 39
165 158 147 143 161 168 162 159 159 169 161 160 154 147 144 144 140 149 153 149 136 120 88 58 45 36 29 24 24 21 18 16 19 18 23 23 14 20 32 42 41 37 41
168 171 162 164 155 143 149 155 152 163 165 158 151 146 143 142 147 159 160 153 143 131 88 49 35 26 23 25 25 21 17 16 16 12 8 9 14 21 24 26 29 35 40